SCP
0 0 0 0 0 0 0 0 0 0 0 0 0 0 0 0 0 0 0 0 0 0 0 0 0 0 0 0 0 0 0 0 0 0 0 0 0 0 0 0 0 0 0 0
0 0 0 0 0 0 0 0 0 0 0 0 0 0 0 0 0 0 0 0 0 0 0 0 0 0 0 0 0 0 0 0 0 0 0 0 0 0 0 0 0 0 0 0
0 0 0 0 0 0 0 0 0 0 0 0 0 0 0 0 0 0 0 0 0 0 0 0 0 0 0 0 0 0 0 0 0 0 0 0 0 0 0 0 0 0 0 0
0 0 0 0 0 0 0 0 0 0 0 0 0 0 0 0 0 0 0 0 0 0 0 0 0 0 0 0 0 0 0 0 0 0 0 0 0 0 0 0 0 0 0 0
0 0 0 0 0 0 0 0 0 0 0 0 0 0 0 0 0 0 0 0 0 0 0 0 0 0 0 0 0 0 0 0 0 0 0 0 0 0 0 0 0 0 0 0
0 0 0 0 0 0 0 0 0 0 0 0 0 0 0 0 0 0 0 0 0 0 0 0 0 0 0 0 0 0 0 0 0 0 0 0 0 0 0 0 0 0 0 0
0 0 0 0 0 0 0 0 0 0 0 0 0 0 0 0 0 0 0 0 0 0 0 0 0 0 0 0 0 0 0 0 0 0 0 0 0 0 0 0 0 0 0 0
0 0 0 0 0 0 0 0 0 0 0 0 0 0 0 0 0 0 0 0 0 0 0 0 0 0 0 0 0 0 0 0 0 0 0 0 0 0 0 0 0 0 0 0
0 0 0 0 0 0 0 0 0 0 0 0 0 0 0 0 0 0 0 0 0 0 0 0 0 0 0 0 0 0 0 0 0 0 0 0 0 0 0 0 0 0 0 0
0 0 0 0 0 0 0 0 0 0 0 0 0 0 0 0 0 0 0 0 0 0 0 0 0 0 0 0 0 0 0 0 0 0 0 0 0 0 0 0 0 0 0 0
0 0 0 0 0 0 0 0 0 0 0 0 0 0 0 0 0 0 0 0 0 0 0 0 0 0 0 0 0 0 0 0 0 0 0 0 0 0 0 0 0 0 0 0
0 0 0 0 0 0 0 0 0 0 0 0 0 0 0 0 0 0 0 0 0 0 0 0 0 0 0 0 0 0 0 0 0 0 0 0 0 0 0 0 0 0 0 0
0 0 0 0 0 0 0 0 0 0 0 0 0 0 0 0 0 0 0 0 0 0 0 0 0 0 0 0 0 0 0 0 0 0 0 0 0 0 0 0 0 0 0 0
0 0 0 0 0 0 0 0 0 0 0 0 0 0 0 0 0 0 0 0 0 0 0 0 0 0 0 0 0 0 0 0 0 0 0 0 0 0 0 0 0 0 0 0
0 0 0 0 0 0 0 0 0 0 0 0 0 0 0 0 0 0 0 0 0 0 0 0 0 0 0 0 0 0 0 0 0 0 0 0 0 0 0 0 0 0 0 0
0 0 0 0 0 0 0 0 0 0 0 0 0 0 0 0 0 0 0 0 0 0 0 0 0 0 0 0 0 0 0 0 0 0 0 0 0 0 0 0 0 0 0 0
0 0 0 0 0 0 0 0 0 0 0 0 0 0 0 0 0 0 0 0 0 0 0 0 0 0 0 0 0 0 0 0 0 0 0 0 0 0 0 0 0 0 0 0
0 0 0 0 0 0 0 0 0 0 0 0 0 0 0 0 0 0 0 0 0 0 0 0 0 0 0 0 0 0 0 0 0 0 0 0 0 0 0 0 0 0 0 0
0 0 0 0 0 0 0 0 0 0 0 0 0 0 0 0 0 0 0 0 0 0 0 0 0 0 0 0 0 0 0 0 0 0 0 0 0 0 0 0 0 0 0 0
0 0 0 0 0 0 0 0 0 0 0 0 0 0 0 0 0 0 0 0 0 0 0 0 0 0 0 0 0 0 0 0 0 0 0 0 0 0 0 0 0 0 0 0
0 0 0 0 0 0 0 0 0 0 0 0 0 0 0 0 0 0 0 0 0 0 0 0 0 0 0 0 0 0 0 0 0 0 0 0 0 0 0 0 0 0 0 0
0 0 0 0 0 0 0 0 0 0 0 0 0 0 0 0 0 0 0 0 0 0 0 0 0 0 0 0 0 0 0 0 0 0 0 0 0 0 0 0 0 0 0 0
0 0 0 0 0 0 0 0 0 0 0 0 0 0 0 0 0 0 0 0 0 0 0 0 0 0 0 0 0 0 0 0 0 0 0 0 0 0 0 0 0 0 0 0
0 0 0 0 0 0 0 0 0 0 0 0 0 0 0 0 0 0 0 0 0 0 0 0 0 0 0 0 0 0 0 0 0 0 0 0 0 0 0 0 0 0 0 0
0 0 0 0 0 0 0 0 0 0 0 0 0 0 0 0 0 0 0 0 0 0 0 0 0 0 0 0 0 0 0 0 0 0 0 0 0 0 0 0 0 0 0 0
0 0 0 0 0 0 0 0 0 0 0 0 0 0 0 0 0 0 0 0 0 0 0 0 0 0 0 0 0 0 0 0 0 0 0 0 0 0 0 0 0 0 0 0
0 0 0 0 0 0 0 0 0 0 0 0 0 0 0 0 0 0 0 0 0 0 0 0 0 0 0 0 0 0 0 0 0 0 0 0 0 0 0 0 0 0 0 0
Wind_Speed
6 6 6 7 8 8 8 9 8 7 6 7 9 10 8 7 6 6 6 7 8 8 7 6 6 6 5 6 5 5 5 5 5 5 4 3 3 3 2 3 3 3 3 4
3 4 5 6 9 10 9 8 8 6 7 7 5 5 5 6 7 7 7 8 8 8 8 7 7 7 6 6 6 5 6 6 5 5 4 4 4 3 3 3 3 3 3 4
4 5 2 6 10 12 9 8 10 11 11 4 5 7 9 8 8 8 8 7 8 8 8 8 8 8 8 7 6 6 6 6 6 5 5 5 4 3 4 4 4 4 4 4
2 1 5 11 7 9 11 10 10 8 8 10 10 9 7 7 8 8 7 6 6 6 7 7 6 6 6 6 6 6 6 6 6 6 6 5 4 5 5 4 4 4 5 5
3 3 8 10 7 8 9 9 9 10 9 9 6 4 1 4 7 8 7 6 6 6 5 5 6 6 6 5 5 5 5 6 6 6 6 5 5 6 5 4 5 5 5 5
4 3 6 10 8 4 6 5 6 11 11 9 9 5 5 5 6 6 5 5 5 4 4 4 4 5 6 4 4 5 6 6 6 6 6 6 7 6 5 4 5 5 5 5
5 4 9 10 5 5 6 10 5 9 10 11 10 9 7 6 6 6 5 5 5 6 4 3 4 6 5 3 3 4 4 3 3 4 5 6 6 5 5 5 5 5 6 6
6 5 11 8 4 7 9 4 3 7 9 9 7 6 7 8 7 7 6 5 6 6 4 2 4 6 5 2 3 2 1 1 2 3 3 3 4 5 4 4 5 5 5 6
11 11 10 6 9 8 5 5 5 7 7 10 10 8 8 7 7 6 6 5 5 6 5 3 3 4 4 1 1 0 1 1 2 3 3 3 3 4 4 3 3 4 4 5
4 8 7 6 5 5 6 6 6 7 9 11 10 9 9 8 7 6 5 5 5 7 6 4 4 4 3 2 2 2 2 2 2 3 3 3 3 3 3 3 3 4 4 5
5 7 5 5 6 6 5 5 6 7 8 12 12 10 9 8 8 7 6 5 6 7 7 5 5 5 4 4 4 4 3 3 3 3 3 4 3 3 3 3 3 3 4 4
7 8 6 9 9 7 7 8 10 9 8 8 11 12 10 9 8 8 7 7 7 8 8 6 5 5 5 4 4 4 4 3 3 3 3 3 3 4 5 4 6 5 4 4
9 8 8 9 8 8 10 10 10 10 11 10 8 10 11 8 7 8 8 9 9 9 8 6 6 5 4 4 4 5 4 3 3 3 3 3 3 3 5 6 8 9 10 10
9 6 7 7 8 9 9 10 8 7 7 9 9 9 10 8 9 10 9 9 9 9 8 6 6 5 4 4 5 5 4 5 4 3 3 3 3 3 3 4 5 6 8 12
13 10 10 8 7 6 6 7 8 8 8 8 9 11 12 12 11 10 9 10 10 9 7 7 6 4 3 4 5 5 4 3 3 3 3 3 4 4 4 5 4 4 5 9
10 7 5 5 7 7 7 9 10 11 10 10 10 11 11 11 11 10 9 10 11 9 7 6 6 3 4 5 5 4 4 8 6 4 4 4 4 5 5 5 5 6 6 7
5 5 4 5 6 8 10 11 13 13 12 12 13 12 13 13 12 10 8 8 9 8 7 6 5 4 4 5 5 3 3 5 8 5 4 4 4 4 4 5 5 5 6 8
6 7 7 8 9 9 9 9 9 12 12 12 14 14 15 15 14 12 10 9 9 7 5 5 5 5 5 4 4 3 3 3 3 3 3 3 3 4 4 4 5 5 4 6
7 6 5 6 7 8 9 10 11 11 12 15 16 15 13 13 13 12 11 10 10 8 4 5 10 6 4 4 5 3 3 3 3 3 2 4 4 3 3 3 3 3 3 4
9 7 6 5 3 3 6 7 9 11 12 15 15 14 13 12 13 13 11 8 6 5 6 6 6 5 3 3 5 3 3 2 2 2 2 2 2 2 2 2 2 3 3 3
11 9 6 3 2 1 2 6 10 12 12 14 15 15 14 12 13 12 11 7 5 6 7 9 5 3 2 3 4 2 2 2 1 1 1 1 1 2 2 2 2 2 2 2
11 8 6 4 2 2 2 4 7 10 11 11 12 13 14 12 11 9 8 7 7 9 6 4 4 5 4 4 2 2 1 1 1 0 0 0 1 1 2 2 2 2 2 3
9 7 6 4 2 3 4 5 7 9 11 12 12 13 12 10 9 10 7 4 6 10 6 4 6 7 5 3 2 1 1 1 0 1 1 1 1 1 2 2 2 2 3 3
9 7 4 3 3 4 4 4 5 6 7 8 9 10 11 8 5 4 6 11 12 10 5 6 8 7 4 2 2 1 1 1 1 1 1 1 1 1 2 2 3 3 3 4
7 6 3 0 2 2 3 5 6 7 7 6 7 7 7 6 6 6 6 8 12 10 4 6 8 6 3 2 2 2 2 2 2 1 1 1 1 2 2 2 3 3 3 4
6 5 3 3 2 3 3 4 4 4 5 5 4 4 5 5 7 7 6 7 8 8 5 3 2 2 2 2 3 2 2 1 1 0 1 1 1 2 2 3 4 3 3 4
5 4 2 1 1 3 4 5 5 5 5 6 5 4 5 6 6 6 7 5 5 4 4 3 3 3 3 3 2 2 2 1 1 1 1 1 1 2 2 3 3 3 4 4
Wind_Direction
223 230 203 213 219 199 184 185 188 224 220 227 214 209 209 203 194 185 189 192 192 196 203 206 205 205 202 203 201 192 186 197 212 216 212 211 223 238 255 271 276 281 291 296
278 257 226 233 228 212 209 198 205 218 242 240 215 182 188 192 186 189 196 199 198 197 197 201 202 201 200 204 203 188 189 205 211 209 211 217 228 237 253 267 278 284 287 287
266 290 338 260 224 206 209 206 190 211 226 195 173 189 194 194 190 193 198 197 195 196 198 199 200 195 197 202 194 189 199 210 211 210 216 226 230 233 246 253 260 273 278 277
225 12 235 244 233 200 205 218 199 198 196 182 191 199 196 184 180 190 190 187 188 192 196 202 199 194 195 187 184 193 204 214 216 213 222 229 229 239 245 245 251 259 266 269
151 228 275 286 265 191 187 236 209 191 190 187 160 109 259 203 176 179 182 180 184 185 184 186 189 186 173 179 187 198 214 221 222 216 221 227 233 242 242 241 251 253 257 261
141 191 248 255 266 193 127 255 229 183 177 164 135 147 233 210 165 159 157 160 161 155 143 154 178 161 156 175 186 216 228 230 228 217 217 226 233 239 238 234 247 258 263 258
171 214 262 257 266 110 144 236 228 179 171 163 174 189 190 162 154 150 146 145 136 127 127 151 150 134 136 147 207 237 237 235 236 230 229 233 240 243 243 246 255 261 267 270
161 195 253 250 166 182 212 227 184 173 169 165 170 152 146 150 151 149 141 136 130 120 116 114 127 127 127 162 249 243 215 230 256 260 258 254 249 259 257 252 260 266 270 280
185 210 230 217 205 216 184 179 178 165 165 149 146 154 157 157 155 153 149 143 131 125 113 87 89 112 116 294 308 71 61 321 303 306 298 291 274 276 280 266 256 265 264 270
253 266 260 243 225 202 188 185 176 163 156 153 156 160 159 157 158 154 150 144 133 122 113 96 74 74 76 26 44 74 52 4 348 341 326 320 306 288 283 279 272 272 269 268
261 279 308 289 241 211 190 166 155 157 163 163 156 159 161 159 158 152 142 136 130 126 119 108 86 68 47 37 57 66 50 23 3 352 338 328 321 299 287 269 255 258 265 258
236 242 221 246 245 219 189 186 175 165 164 168 163 161 158 157 155 147 140 130 122 118 117 111 92 69 42 35 57 70 52 22 3 351 342 337 331 330 324 320 332 340 334 314
233 249 232 246 250 222 202 196 183 173 167 168 165 158 153 149 149 141 136 134 131 128 123 113 95 71 42 35 57 67 57 28 10 5 1 354 352 350 342 343 357 8 6 359
254 254 259 250 240 225 207 193 174 164 163 159 154 148 144 137 141 142 142 138 130 124 119 111 95 73 41 47 60 58 50 39 36 15 6 3 2 1 3 4 4 360 358 4
263 246 241 246 240 220 189 161 156 162 158 152 151 152 151 148 149 145 138 131 123 118 116 109 97 77 47 59 64 56 48 39 34 24 19 17 15 18 21 21 18 7 5 6
268 268 253 233 218 203 179 171 173 176 168 160 158 158 151 143 136 134 135 135 130 128 126 116 107 96 73 68 66 55 44 52 59 44 30 27 26 29 28 26 25 24 22 11
269 264 246 234 224 212 200 192 187 180 172 165 160 148 139 135 132 134 133 129 126 127 126 121 119 104 83 76 76 67 53 48 55 50 39 36 35 33 32 33 32 29 23 18
252 241 231 218 213 216 216 204 186 174 169 162 150 147 148 149 148 145 139 130 119 112 114 123 120 103 84 75 80 74 69 60 52 51 43 41 40 34 34 36 33 31 16 18
308 291 275 252 229 212 206 198 188 176 161 154 155 156 154 149 145 143 140 137 135 134 142 132 121 107 91 77 89 78 75 68 57 46 46 43 42 32 30 29 25 21 17 19
326 319 310 298 281 222 203 187 170 162 160 155 150 147 147 147 146 144 141 141 153 155 153 137 122 117 106 84 88 84 77 74 68 51 45 45 35 21 12 10 10 7 6 6
336 334 328 324 315 289 167 161 156 155 154 153 152 153 150 147 146 145 142 142 164 154 146 139 133 139 134 112 88 86 77 73 75 71 53 37 15 2 349 342 342 340 338 335
337 338 343 354 32 64 87 119 137 140 140 141 141 142 143 144 144 142 147 152 161 155 142 138 149 161 150 118 101 91 80 81 92 114 110 314 325 325 321 321 317 316 316 314
333 334 345 3 44 77 79 95 119 133 138 141 144 147 147 147 149 148 152 159 154 156 147 158 175 172 148 121 122 115 103 110 171 228 248 261 273 285 295 306 303 302 303 304
327 326 333 1 58 85 91 92 98 109 119 125 134 139 138 134 132 142 142 159 164 159 160 184 189 188 166 146 154 164 183 210 227 248 266 274 278 282 287 294 298 297 297 302
316 312 306 144 116 122 125 112 102 104 108 113 121 128 133 138 142 149 148 158 169 164 171 196 199 192 167 166 183 195 207 215 210 207 220 253 273 283 288 291 294 296 298 298
300 294 278 234 180 155 145 130 123 123 121 120 121 127 128 128 133 140 147 159 170 174 178 194 201 191 171 182 192 196 203 233 285 279 256 271 284 291 294 300 307 304 301 300
288 287 277 243 172 154 148 145 144 147 147 144 142 145 142 140 141 149 154 160 167 173 178 185 186 182 179 180 183 184 187 199 221 246 268 285 294 298 301 306 305 306 306 307